"Time","Value","Approval","myLocation"
"2023-05-06 00:00",7.513,"Approved","OW422"
"2023-05-06 01:00",7.501,"Approved","OW422"
"2023-05-06 02:00",7.494,"Approved","OW422"
"2023-05-06 03:00",7.488,"Approved","OW422"
"2023-05-06 04:00",7.481,"Approved","OW422"
"2023-05-06 05:00",7.477,"Approved","OW422"
"2023-05-06 06:00",7.468,"Approved","OW422"
"2023-05-06 07:00",7.466,"Approved","OW422"
"2023-05-06 08:00",7.48,"Approved","OW422"
"2023-05-06 09:00",7.501,"Approved","OW422"
"2023-05-06 10:00",7.487,"Approved","OW422"
"2023-05-06 11:00",7.479,"Approved","OW422"
"2023-05-06 12:00",7.472,"Approved","OW422"
"2023-05-06 13:00",7.468,"Approved","OW422"
"2023-05-06 14:00",7.46,"Approved","OW422"
"2023-05-06 15:00",7.457,"Approved","OW422"
"2023-05-06 16:00",7.479,"Approved","OW422"
"2023-05-06 17:00",7.491,"Approved","OW422"
"2023-05-06 18:00",7.48,"Approved","OW422"
"2023-05-06 19:00",7.47,"Approved","OW422"
"2023-05-06 20:00",7.464,"Approved","OW422"
"2023-05-06 21:00",7.46,"Approved","OW422"
"2023-05-06 22:00",7.454,"Approved","OW422"
"2023-05-06 23:00",7.452,"Approved","OW422"
"2023-05-07 00:00",7.456,"Approved","OW422"
"2023-05-07 01:00",7.488,"Approved","OW422"
"2023-05-07 02:00",7.469,"Approved","OW422"
"2023-05-07 03:00",7.464,"Approved","OW422"
"2023-05-07 04:00",7.454,"Approved","OW422"
"2023-05-07 05:00",7.45,"Approved","OW422"
"2023-05-07 06:00",7.445,"Approved","OW422"
"2023-05-07 07:00",7.445,"Approved","OW422"
"2023-05-07 08:00",7.438,"Approved","OW422"
"2023-05-07 09:00",7.434,"Approved","OW422"
"2023-05-07 10:00",7.459,"Approved","OW422"
"2023-05-07 11:00",7.471,"Approved","OW422"
"2023-05-07 12:00",7.46,"Approved","OW422"
"2023-05-07 13:00",7.453,"Approved","OW422"
"2023-05-07 14:00",7.446,"Approved","OW422"
"2023-05-07 15:00",7.44,"Approved","OW422"
"2023-05-07 16:00",7.436,"Approved","OW422"
"2023-05-07 17:00",7.43,"Approved","OW422"
"2023-05-07 18:00",7.455,"Approved","OW422"
"2023-05-07 19:00",7.462,"Approved","OW422"
"2023-05-07 20:00",7.45,"Approved","OW422"
"2023-05-07 21:00",7.445,"Approved","OW422"
"2023-05-07 22:00",7.439,"Approved","OW422"
"2023-05-07 23:00",7.431,"Approved","OW422"
"2023-05-08 00:00",7.425,"Approved","OW422"
"2023-05-08 01:00",7.42,"Approved","OW422"
"2023-05-08 02:00",7.426,"Approved","OW422"
"2023-05-08 03:00",7.451,"Approved","OW422"
"2023-05-08 04:00",7.434,"Approved","OW422"
"2023-05-08 05:00",7.428,"Approved","OW422"
"2023-05-08 06:00",7.419,"Approved","OW422"
"2023-05-08 07:00",7.417,"Approved","OW422"
"2023-05-08 08:00",7.408,"Approved","OW422"
"2023-05-08 09:00",7.403,"Approved","OW422"
"2023-05-08 10:00",7.398,"Approved","OW422"
"2023-05-08 11:00",7.399,"Approved","OW422"
"2023-05-08 12:00",7.413,"Approved","OW422"
"2023-05-08 13:00",7.417,"Approved","OW422"
"2023-05-08 14:00",7.407,"Approved","OW422"
"2023-05-08 15:00",7.398,"Approved","OW422"
"2023-05-08 16:00",7.39,"Approved","OW422"
"2023-05-08 17:00",7.384,"Approved","OW422"
"2023-05-08 18:00",7.379,"Approved","OW422"
"2023-05-08 19:00",7.374,"Approved","OW422"
"2023-05-08 20:00",7.381,"Approved","OW422"
"2023-05-08 21:00",7.394,"Approved","OW422"
"2023-05-08 22:00",7.406,"Approved","OW422"
"2023-05-08 23:00",7.393,"Approved","OW422"
"2023-05-09 00:00",7.385,"Approved","OW422"
"2023-05-09 01:00",7.378,"Approved","OW422"
"2023-05-09 02:00",7.37,"Approved","OW422"
"2023-05-09 03:00",7.368,"Approved","OW422"
"2023-05-09 04:00",7.361,"Approved","OW422"
"2023-05-09 05:00",7.356,"Approved","OW422"
"2023-05-09 06:00",7.352,"Approved","OW422"
"2023-05-09 07:00",7.349,"Approved","OW422"
"2023-05-09 08:00",7.356,"Approved","OW422"
"2023-05-09 09:00",7.371,"Approved","OW422"
"2023-05-09 10:00",7.373,"Approved","OW422"
"2023-05-09 11:00",7.365,"Approved","OW422"
"2023-05-09 12:00",7.358,"Approved","OW422"
"2023-05-09 13:00",7.348,"Approved","OW422"
"2023-05-09 14:00",7.347,"Approved","OW422"
"2023-05-09 15:00",7.34,"Approved","OW422"
"2023-05-09 16:00",7.335,"Approved","OW422"
"2023-05-09 17:00",7.331,"Approved","OW422"
"2023-05-09 18:00",7.35,"Approved","OW422"
"2023-05-09 19:00",7.362,"Approved","OW422"
"2023-05-09 20:00",7.357,"Approved","OW422"
"2023-05-09 21:00",7.351,"Approved","OW422"
"2023-05-09 22:00",7.345,"Approved","OW422"
"2023-05-09 23:00",7.338,"Approved","OW422"
"2023-05-10 00:00",7.334,"Approved","OW422"
"2023-05-10 01:00",7.331,"Approved","OW422"
"2023-05-10 02:00",7.324,"Approved","OW422"
"2023-05-10 03:00",7.321,"Approved","OW422"
"2023-05-10 04:00",7.318,"Approved","OW422"
"2023-05-10 05:00",7.316,"Approved","OW422"
"2023-05-10 06:00",7.333,"Approved","OW422"
"2023-05-10 07:00",7.347,"Approved","OW422"
"2023-05-10 08:00",7.336,"Approved","OW422"
"2023-05-10 09:00",7.327,"Approved","OW422"
"2023-05-10 10:00",7.32,"Approved","OW422"
"2023-05-10 11:00",7.314,"Approved","OW422"
"2023-05-10 12:00",7.31,"Approved","OW422"
"2023-05-10 13:00",7.303,"Approved","OW422"
"2023-05-10 14:00",7.312,"Approved","OW422"
"2023-05-10 15:00",7.331,"Approved","OW422"
"2023-05-10 16:00",7.33,"Approved","OW422"
"2023-05-10 17:00",7.322,"Approved","OW422"
"2023-05-10 18:00",7.316,"Approved","OW422"
"2023-05-10 19:00",7.313,"Approved","OW422"
"2023-05-10 20:00",7.309,"Approved","OW422"
"2023-05-10 21:00",7.314,"Approved","OW422"
"2023-05-10 22:00",7.333,"Approved","OW422"
"2023-05-10 23:00",7.342,"Approved","OW422"
"2023-05-11 00:00",7.331,"Approved","OW422"
"2023-05-11 01:00",7.327,"Approved","OW422"
"2023-05-11 02:00",7.321,"Approved","OW422"
"2023-05-11 03:00",7.319,"Approved","OW422"
"2023-05-11 04:00",7.317,"Approved","OW422"
"2023-05-11 05:00",7.312,"Approved","OW422"
"2023-05-11 06:00",7.308,"Approved","OW422"
"2023-05-11 07:00",7.307,"Approved","OW422"
"2023-05-11 08:00",7.317,"Approved","OW422"
"2023-05-11 09:00",7.335,"Approved","OW422"
"2023-05-11 10:00",7.339,"Approved","OW422"
"2023-05-11 11:00",7.328,"Approved","OW422"
"2023-05-11 12:00",7.322,"Approved","OW422"
"2023-05-11 13:00",7.317,"Approved","OW422"
"2023-05-11 14:00",7.308,"Approved","OW422"
"2023-05-11 15:00",7.304,"Approved","OW422"
"2023-05-11 16:00",7.326,"Approved","OW422"
"2023-05-11 17:00",7.343,"Approved","OW422"
"2023-05-11 18:00",7.339,"Approved","OW422"
"2023-05-11 19:00",7.331,"Approved","OW422"
"2023-05-11 20:00",7.327,"Approved","OW422"
"2023-05-11 21:00",7.325,"Approved","OW422"
"2023-05-11 22:00",7.322,"Approved","OW422"
"2023-05-11 23:00",7.343,"Approved","OW422"
"2023-05-12 00:00",7.358,"Approved","OW422"
"2023-05-12 01:00",7.348,"Approved","OW422"
"2023-05-12 02:00",7.345,"Approved","OW422"
"2023-05-12 03:00",7.339,"Approved","OW422"
"2023-05-12 04:00",7.335,"Approved","OW422"
"2023-05-12 05:00",7.329,"Approved","OW422"
"2023-05-12 06:00",7.328,"Approved","OW422"
"2023-05-12 07:00",7.326,"Approved","OW422"
"2023-05-12 08:00",7.32,"Approved","OW422"
"2023-05-12 09:00",7.34,"Approved","OW422"
"2023-05-12 10:00",7.358,"Approved","OW422"
"2023-05-12 11:00",7.355,"Approved","OW422"
"2023-05-12 12:00",7.344,"Approved","OW422"
"2023-05-12 13:00",7.338,"Approved","OW422"
"2023-05-12 14:00",7.335,"Approved","OW422"
"2023-05-12 15:00",7.326,"Approved","OW422"
"2023-05-12 16:00",7.337,"Approved","OW422"
"2023-05-12 17:00",7.356,"Approved","OW422"
"2023-05-12 18:00",7.362,"Approved","OW422"
"2023-05-12 19:00",7.349,"Approved","OW422"
"2023-05-12 20:00",7.348,"Approved","OW422"
"2023-05-12 21:00",7.353,"Approved","OW422"
"2023-05-12 22:00",7.377,"Approved","OW422"
"2023-05-12 23:00",7.39,"Approved","OW422"
"2023-05-13 00:00",7.381,"Approved","OW422"
"2023-05-13 01:00",7.376,"Approved","OW422"
"2023-05-13 02:00",7.371,"Approved","OW422"
"2023-05-13 03:00",7.366,"Approved","OW422"
"2023-05-13 04:00",7.363,"Approved","OW422"
"2023-05-13 05:00",7.357,"Approved","OW422"
"2023-05-13 06:00",7.366,"Approved","OW422"
"2023-05-13 07:00",7.386,"Approved","OW422"
"2023-05-13 08:00",7.399,"Approved","OW422"
"2023-05-13 09:00",7.389,"Approved","OW422"
"2023-05-13 10:00",7.379,"Approved","OW422"
"2023-05-13 11:00",7.373,"Approved","OW422"
"2023-05-13 12:00",7.365,"Approved","OW422"
"2023-05-13 13:00",7.371,"Approved","OW422"
"2023-05-13 14:00",7.388,"Approved","OW422"
"2023-05-13 15:00",7.396,"Approved","OW422"
"2023-05-13 16:00",7.385,"Approved","OW422"
"2023-05-13 17:00",7.375,"Approved","OW422"
"2023-05-13 18:00",7.37,"Approved","OW422"
"2023-05-13 19:00",7.389,"Approved","OW422"
"2023-05-13 20:00",7.406,"Approved","OW422"
"2023-05-13 21:00",7.422,"Approved","OW422"
"2023-05-13 22:00",7.429,"Approved","OW422"
"2023-05-13 23:00",7.419,"Approved","OW422"
"2023-05-14 00:00",7.41,"Approved","OW422"
"2023-05-14 01:00",7.403,"Approved","OW422"
"2023-05-14 02:00",7.397,"Approved","OW422"
"2023-05-14 03:00",7.389,"Approved","OW422"
"2023-05-14 04:00",7.386,"Approved","OW422"
"2023-05-14 05:00",7.383,"Approved","OW422"
"2023-05-14 06:00",7.382,"Approved","OW422"
"2023-05-14 07:00",7.403,"Approved","OW422"
"2023-05-14 08:00",7.415,"Approved","OW422"
"2023-05-14 09:00",7.406,"Approved","OW422"
"2023-05-14 10:00",7.395,"Approved","OW422"
"2023-05-14 11:00",7.391,"Approved","OW422"
"2023-05-14 12:00",7.379,"Approved","OW422"
"2023-05-14 13:00",7.4,"Approved","OW422"
"2023-05-14 14:00",7.412,"Approved","OW422"
"2023-05-14 15:00",7.416,"Approved","OW422"
"2023-05-14 16:00",7.404,"Approved","OW422"
"2023-05-14 17:00",7.398,"Approved","OW422"
"2023-05-14 18:00",7.396,"Approved","OW422"
"2023-05-14 19:00",7.419,"Approved","OW422"
"2023-05-14 20:00",7.434,"Approved","OW422"
"2023-05-14 21:00",7.461,"Approved","OW422"
"2023-05-14 22:00",7.463,"Approved","OW422"
"2023-05-14 23:00",7.446,"Approved","OW422"
"2023-05-15 00:00",7.439,"Approved","OW422"
"2023-05-15 01:00",7.429,"Approved","OW422"
"2023-05-15 02:00",7.428,"Approved","OW422"
"2023-05-15 03:00",7.463,"Approved","OW422"
"2023-05-15 04:00",7.449,"Approved","OW422"
"2023-05-15 05:00",7.443,"Approved","OW422"
"2023-05-15 06:00",7.435,"Approved","OW422"
"2023-05-15 07:00",7.488,"Approved","OW422"
"2023-05-15 08:00",7.592,"Approved","OW422"
"2023-05-15 09:00",7.543,"Approved","OW422"
"2023-05-15 10:00",7.497,"Approved","OW422"
"2023-05-15 11:00",7.474,"Approved","OW422"
"2023-05-15 12:00",7.461,"Approved","OW422"
"2023-05-15 13:00",7.547,"Approved","OW422"
"2023-05-15 14:00",7.627,"Approved","OW422"
"2023-05-15 15:00",7.521,"Approved","OW422"
"2023-05-15 16:00",7.493,"Approved","OW422"
"2023-05-15 17:00",7.474,"Approved","OW422"
"2023-05-15 18:00",7.587,"Approved","OW422"
"2023-05-15 19:00",7.657,"Approved","OW422"
"2023-05-15 20:00",7.584,"Approved","OW422"
"2023-05-15 21:00",7.544,"Approved","OW422"
"2023-05-15 22:00",7.638,"Approved","OW422"
"2023-05-15 23:00",7.676,"Approved","OW422"
"2023-05-16 00:00",7.583,"Approved","OW422"
"2023-05-16 01:00",7.555,"Approved","OW422"
"2023-05-16 02:00",7.54,"Approved","OW422"
"2023-05-16 03:00",7.526,"Approved","OW422"
"2023-05-16 04:00",7.52,"Approved","OW422"
"2023-05-16 05:00",7.583,"Approved","OW422"
"2023-05-16 06:00",7.683,"Approved","OW422"
"2023-05-16 07:00",7.588,"Approved","OW422"
"2023-05-16 08:00",7.561,"Approved","OW422"
"2023-05-16 09:00",7.542,"Approved","OW422"
"2023-05-16 10:00",7.617,"Approved","OW422"
"2023-05-16 11:00",7.699,"Approved","OW422"
"2023-05-16 12:00",7.617,"Approved","OW422"
"2023-05-16 13:00",7.578,"Approved","OW422"
"2023-05-16 14:00",7.557,"Approved","OW422"
"2023-05-16 15:00",7.539,"Approved","OW422"
"2023-05-16 16:00",7.596,"Approved","OW422"
"2023-05-16 17:00",7.693,"Approved","OW422"
"2023-05-16 18:00",7.623,"Approved","OW422"
"2023-05-16 19:00",7.59,"Approved","OW422"
"2023-05-16 20:00",7.654,"Approved","OW422"
"2023-05-16 21:00",7.74,"Approved","OW422"
"2023-05-16 22:00",7.714,"Approved","OW422"
"2023-05-16 23:00",7.65,"Approved","OW422"
"2023-05-17 00:00",7.618,"Approved","OW422"
"2023-05-17 01:00",7.6,"Approved","OW422"
"2023-05-17 02:00",7.704,"Approved","OW422"
"2023-05-17 03:00",7.693,"Approved","OW422"
"2023-05-17 04:00",7.64,"Approved","OW422"
"2023-05-17 05:00",7.619,"Approved","OW422"
"2023-05-17 06:00",7.602,"Approved","OW422"
"2023-05-17 07:00",7.74,"Approved","OW422"
"2023-05-17 08:00",7.736,"Approved","OW422"
"2023-05-17 09:00",7.658,"Approved","OW422"
"2023-05-17 10:00",7.63,"Approved","OW422"
"2023-05-17 11:00",7.612,"Approved","OW422"
"2023-05-17 12:00",7.62,"Approved","OW422"
"2023-05-17 13:00",7.745,"Approved","OW422"
"2023-05-17 14:00",7.665,"Approved","OW422"
"2023-05-17 15:00",7.629,"Approved","OW422"
"2023-05-17 16:00",7.608,"Approved","OW422"
"2023-05-17 17:00",7.598,"Approved","OW422"
"2023-05-17 18:00",7.739,"Approved","OW422"
"2023-05-17 19:00",7.793,"Approved","OW422"
"2023-05-17 20:00",7.698,"Approved","OW422"
"2023-05-17 21:00",7.664,"Approved","OW422"
"2023-05-17 22:00",7.768,"Approved","OW422"
"2023-05-17 23:00",7.788,"Approved","OW422"
"2023-05-18 00:00",7.704,"Approved","OW422"
"2023-05-18 01:00",7.674,"Approved","OW422"
"2023-05-18 02:00",7.656,"Approved","OW422"
"2023-05-18 03:00",7.643,"Approved","OW422"
"2023-05-18 04:00",7.749,"Approved","OW422"
"2023-05-18 05:00",7.761,"Approved","OW422"
"2023-05-18 06:00",7.692,"Approved","OW422"
"2023-05-18 07:00",7.67,"Approved","OW422"
"2023-05-18 08:00",7.703,"Approved","OW422"
"2023-05-18 09:00",7.808,"Approved","OW422"
"2023-05-18 10:00",7.727,"Approved","OW422"
"2023-05-18 11:00",7.69,"Approved","OW422"
"2023-05-18 12:00",7.669,"Approved","OW422"
"2023-05-18 13:00",7.653,"Approved","OW422"
"2023-05-18 14:00",7.73,"Approved","OW422"
"2023-05-18 15:00",7.813,"Approved","OW422"
"2023-05-18 16:00",7.71,"Approved","OW422"
"2023-05-18 17:00",7.689,"Approved","OW422"
"2023-05-18 18:00",7.673,"Approved","OW422"
"2023-05-18 19:00",7.785,"Approved","OW422"
"2023-05-18 20:00",7.849,"Approved","OW422"
"2023-05-18 21:00",7.803,"Approved","OW422"
"2023-05-18 22:00",7.75,"Approved","OW422"
"2023-05-18 23:00",7.725,"Approved","OW422"
"2023-05-19 00:00",7.773,"Approved","OW422"
"2023-05-19 01:00",7.869,"Approved","OW422"
"2023-05-19 02:00",7.78,"Approved","OW422"
"2023-05-19 03:00",7.747,"Approved","OW422"
"2023-05-19 04:00",7.727,"Approved","OW422"
"2023-05-19 05:00",7.717,"Approved","OW422"
"2023-05-19 06:00",7.857,"Approved","OW422"
"2023-05-19 07:00",7.827,"Approved","OW422"
"2023-05-19 08:00",7.771,"Approved","OW422"
"2023-05-19 09:00",7.746,"Approved","OW422"
"2023-05-19 10:00",7.743,"Approved","OW422"
"2023-05-19 11:00",7.872,"Approved","OW422"
"2023-05-19 12:00",7.813,"Approved","OW422"
"2023-05-19 13:00",7.768,"Approved","OW422"
"2023-05-19 14:00",7.745,"Approved","OW422"
"2023-05-19 15:00",7.779,"Approved","OW422"
"2023-05-19 16:00",7.879,"Approved","OW422"
"2023-05-19 17:00",7.804,"Approved","OW422"
"2023-05-19 18:00",7.768,"Approved","OW422"
"2023-05-19 19:00",7.814,"Approved","OW422"
"2023-05-19 20:00",7.906,"Approved","OW422"
"2023-05-19 21:00",7.952,"Approved","OW422"
"2023-05-19 22:00",7.848,"Approved","OW422"
"2023-05-19 23:00",7.812,"Approved","OW422"
"2023-05-20 00:00",7.791,"Approved","OW422"
"2023-05-20 01:00",7.781,"Approved","OW422"
"2023-05-20 02:00",7.915,"Approved","OW422"
"2023-05-20 03:00",7.841,"Approved","OW422"
"2023-05-20 04:00",7.807,"Approved","OW422"
"2023-05-20 05:00",7.786,"Approved","OW422"
"2023-05-20 06:00",7.792,"Approved","OW422"
"2023-05-20 07:00",7.921,"Approved","OW422"
"2023-05-20 08:00",7.866,"Approved","OW422"
"2023-05-20 09:00",7.82,"Approved","OW422"
"2023-05-20 10:00",7.794,"Approved","OW422"
"2023-05-20 11:00",7.834,"Approved","OW422"
"2023-05-20 12:00",7.929,"Approved","OW422"
"2023-05-20 13:00",7.85,"Approved","OW422"
"2023-05-20 14:00",7.812,"Approved","OW422"
"2023-05-20 15:00",7.787,"Approved","OW422"
"2023-05-20 16:00",7.831,"Approved","OW422"
"2023-05-20 17:00",7.927,"Approved","OW422"
"2023-05-20 18:00",7.896,"Approved","OW422"
"2023-05-20 19:00",7.837,"Approved","OW422"
"2023-05-20 20:00",7.848,"Approved","OW422"
"2023-05-20 21:00",7.962,"Approved","OW422"
"2023-05-20 22:00",7.977,"Approved","OW422"
"2023-05-20 23:00",7.884,"Approved","OW422"
"2023-05-21 00:00",7.852,"Approved","OW422"
"2023-05-21 01:00",7.833,"Approved","OW422"
"2023-05-21 02:00",7.857,"Approved","OW422"
"2023-05-21 03:00",7.969,"Approved","OW422"
"2023-05-21 04:00",7.873,"Approved","OW422"
"2023-05-21 05:00",7.842,"Approved","OW422"
"2023-05-21 06:00",7.824,"Approved","OW422"
"2023-05-21 07:00",7.823,"Approved","OW422"
"2023-05-21 08:00",7.953,"Approved","OW422"
"2023-05-21 09:00",7.905,"Approved","OW422"
"2023-05-21 10:00",7.857,"Approved","OW422"
"2023-05-21 11:00",7.833,"Approved","OW422"
"2023-05-21 12:00",7.816,"Approved","OW422"
"2023-05-21 13:00",7.936,"Approved","OW422"
"2023-05-21 14:00",7.92,"Approved","OW422"
"2023-05-21 15:00",7.857,"Approved","OW422"
"2023-05-21 16:00",7.828,"Approved","OW422"
"2023-05-21 17:00",7.814,"Approved","OW422"
"2023-05-21 18:00",7.937,"Approved","OW422"
"2023-05-21 19:00",7.992,"Approved","OW422"
"2023-05-21 20:00",7.888,"Approved","OW422"
"2023-05-21 21:00",7.863,"Approved","OW422"
"2023-05-21 22:00",7.957,"Approved","OW422"
"2023-05-21 23:00",7.991,"Approved","OW422"
"2023-05-22 00:00",7.903,"Approved","OW422"
"2023-05-22 01:00",7.878,"Approved","OW422"
"2023-05-22 02:00",7.91,"Approved","OW422"
"2023-05-22 03:00",8.011,"Approved","OW422"
"2023-05-22 04:00",7.958,"Approved","OW422"
"2023-05-22 05:00",7.906,"Approved","OW422"
"2023-05-22 06:00",7.989,"Approved","OW422"
"2023-05-22 07:00",8.05,"Approved","OW422"
"2023-05-22 08:00",7.957,"Approved","OW422"
"2023-05-22 09:00",7.917,"Approved","OW422"
"2023-05-22 10:00",7.898,"Approved","OW422"
"2023-05-22 11:00",7.881,"Approved","OW422"
"2023-05-22 12:00",7.923,"Approved","OW422"
"2023-05-22 13:00",8.021,"Approved","OW422"
"2023-05-22 14:00",7.926,"Approved","OW422"
"2023-05-22 15:00",7.896,"Approved","OW422"
"2023-05-22 16:00",7.876,"Approved","OW422"
"2023-05-22 17:00",7.865,"Approved","OW422"
"2023-05-22 18:00",7.856,"Approved","OW422"
"2023-05-22 19:00",7.868,"Approved","OW422"
"2023-05-22 20:00",7.996,"Approved","OW422"
"2023-05-22 21:00",7.927,"Approved","OW422"
"2023-05-22 22:00",7.896,"Approved","OW422"
"2023-05-22 23:00",7.881,"Approved","OW422"
"2023-05-23 00:00",7.868,"Approved","OW422"
"2023-05-23 01:00",7.856,"Approved","OW422"
"2023-05-23 02:00",7.847,"Approved","OW422"
"2023-05-23 03:00",7.854,"Approved","OW422"
"2023-05-23 04:00",7.878,"Approved","OW422"
"2023-05-23 05:00",7.863,"Approved","OW422"
"2023-05-23 06:00",7.852,"Approved","OW422"
"2023-05-23 07:00",7.845,"Approved","OW422"
"2023-05-23 08:00",7.84,"Approved","OW422"
"2023-05-23 09:00",7.831,"Approved","OW422"
"2023-05-23 10:00",7.834,"Approved","OW422"
"2023-05-23 11:00",7.868,"Approved","OW422"
"2023-05-23 12:00",7.855,"Approved","OW422"
"2023-05-23 13:00",7.847,"Approved","OW422"
"2023-05-23 14:00",7.842,"Approved","OW422"
"2023-05-23 15:00",7.837,"Approved","OW422"
"2023-05-23 16:00",7.829,"Approved","OW422"
"2023-05-23 17:00",7.826,"Approved","OW422"
"2023-05-23 18:00",7.822,"Approved","OW422"
"2023-05-23 19:00",7.852,"Approved","OW422"
"2023-05-23 20:00",7.856,"Approved","OW422"
"2023-05-23 21:00",7.841,"Approved","OW422"
"2023-05-23 22:00",7.835,"Approved","OW422"
"2023-05-23 23:00",7.83,"Approved","OW422"
"2023-05-24 00:00",7.826,"Approved","OW422"
"2023-05-24 01:00",7.823,"Approved","OW422"
"2023-05-24 02:00",7.822,"Approved","OW422"
"2023-05-24 03:00",7.857,"Approved","OW422"
"2023-05-24 04:00",7.859,"Approved","OW422"
"2023-05-24 05:00",7.85,"Approved","OW422"
"2023-05-24 06:00",7.845,"Approved","OW422"
"2023-05-24 07:00",7.839,"Approved","OW422"
"2023-05-24 08:00",7.866,"Approved","OW422"
"2023-05-24 09:00",7.867,"Approved","OW422"
"2023-05-24 10:00",7.854,"Approved","OW422"
"2023-05-24 11:00",7.847,"Approved","OW422"
"2023-05-24 12:00",7.843,"Approved","OW422"
"2023-05-24 13:00",7.837,"Approved","OW422"
"2023-05-24 14:00",7.831,"Approved","OW422"
"2023-05-24 15:00",7.827,"Approved","OW422"
"2023-05-24 16:00",7.851,"Approved","OW422"
"2023-05-24 17:00",7.857,"Approved","OW422"
"2023-05-24 18:00",7.844,"Approved","OW422"
"2023-05-24 19:00",7.835,"Approved","OW422"
"2023-05-24 20:00",7.832,"Approved","OW422"
"2023-05-24 21:00",7.83,"Approved","OW422"
"2023-05-24 22:00",7.825,"Approved","OW422"
"2023-05-24 23:00",7.856,"Approved","OW422"
"2023-05-25 00:00",7.853,"Approved","OW422"
"2023-05-25 01:00",7.842,"Approved","OW422"
"2023-05-25 02:00",7.839,"Approved","OW422"
"2023-05-25 03:00",7.832,"Approved","OW422"
"2023-05-25 04:00",7.831,"Approved","OW422"
"2023-05-25 05:00",7.83,"Approved","OW422"
"2023-05-25 06:00",7.842,"Approved","OW422"
"2023-05-25 07:00",7.868,"Approved","OW422"
"2023-05-25 08:00",7.85,"Approved","OW422"
"2023-05-25 09:00",7.843,"Approved","OW422"
"2023-05-25 10:00",7.836,"Approved","OW422"
"2023-05-25 11:00",7.829,"Approved","OW422"
"2023-05-25 12:00",7.824,"Approved","OW422"
"2023-05-25 13:00",7.84,"Approved","OW422"
"2023-05-25 14:00",7.864,"Approved","OW422"
"2023-05-25 15:00",7.848,"Approved","OW422"
"2023-05-25 16:00",7.841,"Approved","OW422"
"2023-05-25 17:00",7.833,"Approved","OW422"
"2023-05-25 18:00",7.828,"Approved","OW422"
"2023-05-25 19:00",7.844,"Approved","OW422"
"2023-05-25 20:00",7.876,"Approved","OW422"
"2023-05-25 21:00",7.865,"Approved","OW422"
"2023-05-25 22:00",7.857,"Approved","OW422"
"2023-05-25 23:00",7.854,"Approved","OW422"
"2023-05-26 00:00",7.847,"Approved","OW422"
"2023-05-26 01:00",7.844,"Approved","OW422"
"2023-05-26 02:00",7.862,"Approved","OW422"
"2023-05-26 03:00",7.893,"Approved","OW422"
"2023-05-26 04:00",7.878,"Approved","OW422"
"2023-05-26 05:00",7.869,"Approved","OW422"
"2023-05-26 06:00",7.864,"Approved","OW422"
"2023-05-26 07:00",7.881,"Approved","OW422"
"2023-05-26 08:00",7.9,"Approved","OW422"
"2023-05-26 09:00",7.882,"Approved","OW422"
"2023-05-26 10:00",7.872,"Approved","OW422"
"2023-05-26 11:00",7.863,"Approved","OW422"
"2023-05-26 12:00",7.855,"Approved","OW422"
"2023-05-26 13:00",7.885,"Approved","OW422"
"2023-05-26 14:00",7.888,"Approved","OW422"
"2023-05-26 15:00",7.874,"Approved","OW422"
"2023-05-26 16:00",7.863,"Approved","OW422"
"2023-05-26 17:00",7.854,"Approved","OW422"
"2023-05-26 18:00",7.878,"Approved","OW422"
"2023-05-26 19:00",7.903,"Approved","OW422"
"2023-05-26 20:00",7.892,"Approved","OW422"
"2023-05-26 21:00",7.882,"Approved","OW422"
"2023-05-26 22:00",7.906,"Approved","OW422"
"2023-05-26 23:00",7.92,"Approved","OW422"
"2023-05-27 00:00",7.905,"Approved","OW422"
"2023-05-27 01:00",7.896,"Approved","OW422"
"2023-05-27 02:00",7.892,"Approved","OW422"
"2023-05-27 03:00",7.908,"Approved","OW422"
"2023-05-27 04:00",7.922,"Approved","OW422"
"2023-05-27 05:00",7.91,"Approved","OW422"
"2023-05-27 06:00",7.902,"Approved","OW422"
"2023-05-27 07:00",7.895,"Approved","OW422"
"2023-05-27 08:00",7.917,"Approved","OW422"
"2023-05-27 09:00",7.928,"Approved","OW422"
"2023-05-27 10:00",7.913,"Approved","OW422"
"2023-05-27 11:00",7.904,"Approved","OW422"
"2023-05-27 12:00",7.894,"Approved","OW422"
"2023-05-27 13:00",7.889,"Approved","OW422"
"2023-05-27 14:00",7.92,"Approved","OW422"
"2023-05-27 15:00",7.927,"Approved","OW422"
"2023-05-27 16:00",7.917,"Approved","OW422"
"2023-05-27 17:00",7.906,"Approved","OW422"
"2023-05-27 18:00",7.899,"Approved","OW422"
"2023-05-27 19:00",7.895,"Approved","OW422"
"2023-05-27 20:00",7.913,"Approved","OW422"
"2023-05-27 21:00",7.944,"Approved","OW422"
"2023-05-27 22:00",7.933,"Approved","OW422"
"2023-05-27 23:00",7.925,"Approved","OW422"
"2023-05-28 00:00",7.915,"Approved","OW422"
"2023-05-28 01:00",7.909,"Approved","OW422"
"2023-05-28 02:00",7.905,"Approved","OW422"
"2023-05-28 03:00",7.901,"Approved","OW422"
"2023-05-28 04:00",7.898,"Approved","OW422"